Location: Casteau
(50.5142°N, 4.0161°E)
Time: 15:09:35
(UTC+00:00)

CSL-04 Debris - Pass Details

Date: 18 September 2020
Orbit: 827 x 847 km, 98.9° (Epoch: 24 October)

Event Time Altitude Azimuth Distance (km) Brightness Sun altitude
Rises 18:17:00 0° 158° (SSE) 3,360 7.0 -5.1°
Reaches altitude 10° 18:19:20 10° 157° (SSE) 2,429 6.3 -5.4°
Maximum altitude 18:24:42 78° 72° (ENE) 851 4.2 -6.3°
Drops below altitude 10° 18:30:07 10° 347° (NNW) 2,444 7.0 -7.1°
Sets 18:32:29 0° 346° (NNW) 3,383 7.7 -7.5°
